When you browse on this site, cookies collect data to enhance your experience and personalize the content and advertising you see.
Visit our Privacy Policy to learn more. By continuing to use the site, you agree to this use of cookies and data.
  • In Portugal
  • List of Countries
  • For 7 days
  • Water Temperature
  • Satellite Maps
  • Weather Map
  • Weather Widgets
  • user-avatar
    Login

    Hourly Weather Asadabad

    Today, 17 December, Monday

    Time Temperature Precipitation Wind Pressure Humidity
    00:00 +7°C° 0 mm 3 mps 662 mmHg 21%
    01:00 +5°C° 0 mm 3 mps 661 mmHg 21%
    02:00 +5°C° 0 mm 3 mps 661 mmHg 20%
    03:00 +5°C° 0 mm 3 mps 661 mmHg 20%
    04:00 +5°C° 0 mm 3 mps 661 mmHg 20%
    05:00 +5°C° 0 mm 3 mps 661 mmHg 19%
    06:00 +5°C° 0 mm 3 mps 661 mmHg 19%
    07:00 +5°C° 0 mm 3 mps 661 mmHg 19%
    08:00 +5°C° 0 mm 3 mps 661 mmHg 19%
    09:00 +9°C° 0 mm 3 mps 661 mmHg 16%
    10:00 +12°C° 0 mm 2 mps 662 mmHg 14%
    11:00 +15°C° 0 mm 1 mps 662 mmHg 12%
    12:00 +15°C° 0 mm 1 mps 662 mmHg 12%
    13:00 +16°C° 0 mm 1 mps 662 mmHg 12%
    14:00 +16°C° 0 mm 1 mps 661 mmHg 12%
    15:00 +14°C° 0 mm 1 mps 661 mmHg 16%
    16:00 +12°C° 0 mm 1 mps 660 mmHg 19%
    17:00 +10°C° 0 mm 1 mps 660 mmHg 23%
    18:00 +10°C° 0 mm 1 mps 660 mmHg 22%
    19:00 +9°C° 0 mm 2 mps 660 mmHg 22%
    20:00 +9°C° 0 mm 2 mps 661 mmHg 22%
    21:00 +8°C° 0 mm 3 mps 661 mmHg 22%
    22:00 +8°C° 0 mm 3 mps 661 mmHg 23%
    23:00 +7°C° 0 mm 3 mps 661 mmHg 23%

    Tomorrow, 18 December, Tuesday

    Time Temperature Precipitation Wind Pressure Humidity
    00:00 +7°C° 0 mm 3 mps 660 mmHg 23%
    01:00 +7°C° 0 mm 3 mps 660 mmHg 23%
    02:00 +7°C° 0 mm 3 mps 660 mmHg 23%
    03:00 +5°C° 0 mm 3 mps 660 mmHg 23%
    04:00 +5°C° 0 mm 3 mps 660 mmHg 23%
    05:00 +5°C° 0 mm 3 mps 659 mmHg 23%
    06:00 +5°C° 0 mm 3 mps 660 mmHg 23%
    07:00 +5°C° 0 mm 3 mps 660 mmHg 23%
    08:00 +7°C° 0 mm 3 mps 660 mmHg 23%
    09:00 +9°C° 0 mm 2 mps 660 mmHg 20%
    10:00 +13°C° 0 mm 2 mps 661 mmHg 18%
    11:00 +16°C° 0 mm 1 mps 661 mmHg 15%
    12:00 +16°C° 0 mm 1 mps 661 mmHg 15%
    13:00 +18°C° 0 mm 1 mps 660 mmHg 14%
    14:00 +18°C° 0 mm 1 mps 660 mmHg 14%
    15:00 +15°C° 0 mm 1 mps 659 mmHg 18%
    16:00 +13°C° 0 mm 1 mps 659 mmHg 22%
    17:00 +10°C° 0 mm 0 mps 658 mmHg 26%
    18:00 +11°C° 0 mm 1 mps 658 mmHg 25%
    19:00 +11°C° 0 mm 1 mps 658 mmHg 25%
    20:00 +10°C° 0 mm 2 mps 659 mmHg 24%
    21:00 +10°C° 0 mm 2 mps 658 mmHg 25%
    22:00 +9°C° 0 mm 2 mps 658 mmHg 25%
    23:00 +9°C° 0 mm 2 mps 658 mmHg 26%

    Day after tomorrow, 19 December, Wednesday

    Time Temperature Precipitation Wind Pressure Humidity
    00:00 +9°C° 0 mm 2 mps 658 mmHg 26%
    01:00 +8°C° 0 mm 2 mps 657 mmHg 26%
    02:00 +8°C° 0 mm 2 mps 657 mmHg 26%
    03:00 +7°C° 0 mm 2 mps 657 mmHg 26%
    04:00 +7°C° 0 mm 2 mps 657 mmHg 26%
    05:00 +7°C° 0 mm 2 mps 657 mmHg 25%
    06:00 +7°C° 0 mm 2 mps 657 mmHg 25%
    07:00 +7°C° 0 mm 2 mps 657 mmHg 25%
    08:00 +7°C° 0 mm 3 mps 657 mmHg 24%
    09:00 +9°C° 0 mm 2 mps 658 mmHg 21%
    10:00 +13°C° 0 mm 1 mps 658 mmHg 19%
    11:00 +15°C° 0 mm 1 mps 659 mmHg 16%
    12:00 +15°C° 0 mm 1 mps 659 mmHg 16%
    13:00 +16°C° 0 mm 2 mps 658 mmHg 16%
    14:00 +16°C° 0 mm 2 mps 658 mmHg 16%
    15:00 +14°C° 0 mm 1 mps 658 mmHg 20%
    16:00 +12°C° 0 mm 1 mps 658 mmHg 24%
    17:00 +10°C° 0 mm 1 mps 657 mmHg 28%
    18:00 +10°C° 0 mm 1 mps 658 mmHg 27%
    19:00 +8°C° 0 mm 2 mps 659 mmHg 27%
    20:00 +8°C° 0 mm 2 mps 659 mmHg 26%
    21:00 +7°C° 0 mm 2 mps 659 mmHg 26%
    22:00 +7°C° 0 mm 2 mps 659 mmHg 26%
    23:00 +5°C° 0 mm 3 mps 659 mmHg 26%

    20 December, Thursday

    Time Temperature Precipitation Wind Pressure Humidity
    00:00 +5°C° 0 mm 3 mps 659 mmHg 26%
    01:00 +5°C° 0 mm 3 mps 659 mmHg 26%
    02:00 +5°C° 0 mm 3 mps 659 mmHg 25%
    03:00 +4°C° 0 mm 3 mps 659 mmHg 25%
    04:00 +4°C° 0 mm 3 mps 659 mmHg 25%
    05:00 +4°C° 0 mm 3 mps 659 mmHg 25%
    06:00 +4°C° 0 mm 3 mps 659 mmHg 24%
    07:00 +4°C° 0 mm 3 mps 660 mmHg 24%
    08:00 +4°C° 0 mm 3 mps 660 mmHg 24%
    09:00 +7°C° 0 mm 3 mps 661 mmHg 22%
    10:00 +10°C° 0 mm 2 mps 661 mmHg 19%
    11:00 +13°C° 0 mm 1 mps 661 mmHg 17%
    12:00 +13°C° 0 mm 1 mps 661 mmHg 16%
    13:00 +14°C° 0 mm 1 mps 660 mmHg 16%
    14:00 +14°C° 0 mm 1 mps 660 mmHg 15%
    15:00 +13°C° 0 mm 1 mps 659 mmHg 19%
    16:00 +11°C° 0 mm 1 mps 659 mmHg 23%
    17:00 +9°C° 0 mm 1 mps 659 mmHg 26%
    18:00 +9°C° 0 mm 1 mps 659 mmHg 25%
    19:00 +7°C° 0 mm 2 mps 660 mmHg 25%
    20:00 +7°C° 0 mm 3 mps 660 mmHg 24%
    21:00 +5°C° 0 mm 3 mps 660 mmHg 23%
    22:00 +5°C° 0 mm 3 mps 660 mmHg 22%
    23:00 +5°C° 0 mm 3 mps 660 mmHg 21%

    21 December, Friday

    Time Temperature Precipitation Wind Pressure Humidity
    00:00 +5°C° 0 mm 3 mps 659 mmHg 21%
    01:00 +4°C° 0 mm 3 mps 659 mmHg 20%
    02:00 +4°C° 0 mm 3 mps 658 mmHg 19%
    03:00 +4°C° 0 mm 3 mps 658 mmHg 19%
    04:00 +4°C° 0 mm 3 mps 658 mmHg 19%
    05:00 +4°C° 0 mm 3 mps 657 mmHg 18%
    06:00 +4°C° 0 mm 3 mps 657 mmHg 18%
    07:00 +4°C° 0 mm 3 mps 658 mmHg 18%
    08:00 +4°C° 0 mm 3 mps 658 mmHg 17%
    09:00 +8°C° 0 mm 2 mps 658 mmHg 15%
    10:00 +10°C° 0 mm 2 mps 659 mmHg 14%
    11:00 +14°C° 0 mm 1 mps 659 mmHg 12%
    12:00 +14°C° 0 mm 1 mps 659 mmHg 12%
    13:00 +15°C° 0 mm 1 mps 658 mmHg 13%
    14:00 +15°C° 0 mm 1 mps 658 mmHg 13%
    15:00 +13°C° 0 mm 1 mps 658 mmHg 17%
    16:00 +11°C° 0 mm 1 mps 657 mmHg 20%
    17:00 +10°C° 0 mm 1 mps 657 mmHg 23%
    18:00 +9°C° 0 mm 1 mps 657 mmHg 23%
    19:00 +8°C° 0 mm 2 mps 658 mmHg 22%
    20:00 +7°C° 0 mm 2 mps 658 mmHg 21%
    21:00 +7°C° 0 mm 2 mps 658 mmHg 21%
    22:00 +7°C° 0 mm 3 mps 658 mmHg 21%
    23:00 +5°C° 0 mm 3 mps 658 mmHg 21%

    22 December, Saturday

    Time Temperature Precipitation Wind Pressure Humidity
    00:00 +5°C° 0 mm 3 mps 658 mmHg 20%
    01:00 +5°C° 0 mm 3 mps 658 mmHg 20%
    02:00 +5°C° 0 mm 3 mps 657 mmHg 20%
    03:00 +5°C° 0 mm 3 mps 657 mmHg 19%
    04:00 +5°C° 0 mm 3 mps 657 mmHg 19%
    05:00 +4°C° 0 mm 3 mps 657 mmHg 18%
    06:00 +5°C° 0 mm 3 mps 657 mmHg 18%
    07:00 +5°C° 0 mm 3 mps 657 mmHg 18%
    08:00 +5°C° 0 mm 3 mps 658 mmHg 17%
    09:00 +8°C° 0 mm 2 mps 658 mmHg 16%
    10:00 +12°C° 0 mm 2 mps 658 mmHg 14%
    11:00 +14°C° 0 mm 2 mps 659 mmHg 13%
    12:00 +15°C° 0 mm 2 mps 658 mmHg 13%
    13:00 +15°C° 0 mm 2 mps 658 mmHg 13%
    14:00 +15°C° 0 mm 2 mps 658 mmHg 13%
    15:00 +13°C° 0 mm 1 mps 658 mmHg 16%
    16:00 +12°C° 0 mm 1 mps 657 mmHg 19%
    17:00 +10°C° 0 mm 1 mps 657 mmHg 22%
    18:00 +9°C° 0 mm 1 mps 657 mmHg 22%
    19:00 +7°C° 0 mm 2 mps 658 mmHg 22%
    20:00 +7°C° 0 mm 2 mps 658 mmHg 21%
    21:00 +6°C° 0 mm 2 mps 658 mmHg 21%
    22:00 +6°C° 0 mm 2 mps 658 mmHg 22%
    23:00 +6°C° 0 mm 2 mps 658 mmHg 22%
    Show more